| time (UTC) | temp F | wind direction | speed MPH | gust MPH | rain 1hr in | rain 24hr in | rain mn in | humidity % | barometer mb |
| 20260505051608 | 56 | 0 | 0.0 | 0.0 | 0.00 | 0.00 | 0.00 | 85 | 1016.4 |
| 20260505050106 | 57 | 0 | 0.0 | 0.0 | 0.00 | 0.00 | 0.00 | 85 | 1016.3 |
| 20260505041603 | 58 | 0 | 0.0 | 0.0 | 0.00 | 0.00 | 0.00 | 85 | 1015.9 |
| 20260505040100 | 59 | 0 | 0.0 | 2.0 | 0.00 | 0.00 | 0.00 | 83 | 1015.7 |
| 20260505034557 | 59 | 261 | 0.0 | 3.0 | 0.00 | 0.00 | 0.00 | 84 | 1015.4 |
| 20260505033100 | 60 | 0 | 0.0 | 0.0 | 0.00 | 0.00 | 0.00 | 83 | 1015.2 |
| 20260505031601 | 61 | 248 | 0.0 | 2.0 | 0.00 | 0.00 | 0.00 | 82 | 1015.0 |
| 20260505030058 | 62 | 0 | 0.0 | 0.0 | 0.00 | 0.00 | 0.00 | 83 | 1014.9 |
| 20260505024608 | 63 | 0 | 0.0 | 0.0 | 0.00 | 0.00 | 0.00 | 84 | 1014.6 |
| 20260505023105 | 64 | 0 | 0.0 | 0.0 | 0.00 | 0.00 | 0.00 | 85 | 1014.6 |
| 20260505021558 | 65 | 0 | 0.0 | 0.0 | 0.00 | 0.00 | 0.00 | 84 | 1014.6 |
| 20260505020059 | 65 | 0 | 0.0 | 0.0 | 0.00 | 0.00 | 0.00 | 83 | 1014.4 |
| 20260505014600 | 65 | 0 | 0.0 | 0.0 | 0.00 | 0.00 | 0.00 | 84 | 1014.4 |
| 20260505013127 | 66 | 0 | 0.0 | 0.0 | 0.00 | 0.00 | 0.00 | 84 | 1014.6 |
| 20260505011628 | 66 | 0 | 0.0 | 0.0 | 0.00 | 0.00 | 0.00 | 83 | 1014.6 |
| 20260505010115 | 67 | 0 | 0.0 | 2.0 | 0.00 | 0.00 | 0.00 | 80 | 1014.6 |
| 20260505004558 | 67 | 0 | 0.0 | 1.0 | 0.00 | 0.00 | 0.00 | 81 | 1014.6 |
| 20260505003104 | 67 | 0 | 0.0 | 5.0 | 0.00 | 0.00 | 0.00 | 80 | 1014.9 |
| 20260505001559 | 67 | 128 | 0.0 | 2.0 | 0.00 | 0.00 | 0.00 | 79 | 1014.8 |
| 20260505000109 | 68 | 160 | 0.0 | 3.0 | 0.00 | 0.00 | 0.00 | 78 | 1014.9 |
| 20260504234600 | 68 | 0 | 1.0 | 7.0 | 0.00 | 0.00 | 0.00 | 76 | 1015.1 |
| 20260504233107 | 69 | 138 | 1.0 | 9.0 | 0.00 | 0.00 | 0.00 | 77 | 1015.2 |
| 20260504231601 | 68 | 0 | 0.0 | 7.0 | 0.00 | 0.00 | 0.00 | 78 | 1015.2 |
| 20260504230105 | 69 | 0 | 2.0 | 6.0 | 0.00 | 0.00 | 0.00 | 75 | 1015.4 |
| 20260504224606 | 69 | 96 | 1.0 | 7.0 | 0.00 | 0.00 | 0.00 | 77 | 1015.5 |
| 20260504223104 | 69 | 95 | 2.0 | 5.0 | 0.00 | 0.00 | 0.00 | 75 | 1015.5 |
| 20260504221603 | 69 | 121 | 1.0 | 11.0 | 0.00 | 0.00 | 0.00 | 73 | 1015.7 |
| 20260504220100 | 69 | 0 | 1.0 | 4.0 | 0.00 | 0.00 | 0.00 | 75 | 1015.9 |
| 20260504214614 | 69 | 71 | 2.0 | 5.0 | 0.00 | 0.00 | 0.00 | 74 | 1015.9 |
| 20260504213125 | 68 | 0 | 1.0 | 5.0 | 0.00 | 0.00 | 0.00 | 76 | 1016.0 |
| 20260504211559 | 67 | 83 | 1.0 | 6.0 | 0.00 | 0.00 | 0.00 | 78 | 1016.3 |
| 20260504210105 | 67 | 139 | 3.0 | 10.0 | 0.00 | 0.00 | 0.00 | 77 | 1016.5 |
| 20260504204607 | 67 | 101 | 2.0 | 6.0 | 0.00 | 0.00 | 0.00 | 78 | 1016.5 |
| 20260504203107 | 66 | 167 | 1.0 | 5.0 | 0.00 | 0.00 | 0.00 | 79 | 1016.8 |
| 20260504201630 | 65 | 65 | 1.0 | 6.0 | 0.00 | 0.00 | 0.00 | 79 | 1016.9 |
| 20260504200114 | 65 | 67 | 1.0 | 6.0 | 0.00 | 0.00 | 0.00 | 81 | 1017.0 |
| 20260504194611 | 64 | 67 | 2.0 | 5.0 | 0.00 | 0.00 | 0.00 | 80 | 1017.2 |
| 20260504193118 | 63 | 77 | 1.0 | 4.0 | 0.00 | 0.00 | 0.00 | 83 | 1017.2 |
| 20260504191609 | 62 | 63 | 2.0 | 5.0 | 0.00 | 0.00 | 0.00 | 82 | 1017.3 |
| 20260504190116 | 62 | 80 | 1.0 | 8.0 | 0.00 | 0.00 | 0.00 | 84 | 1017.4 |
| 20260504184626 | 61 | 77 | 1.0 | 6.0 | 0.00 | 0.00 | 0.00 | 85 | 1017.4 |
| 20260504183100 | 60 | 0 | 1.0 | 4.0 | 0.00 | 0.00 | 0.00 | 85 | 1017.4 |
| 20260504181603 | 59 | 51 | 0.0 | 4.0 | 0.00 | 0.00 | 0.00 | 86 | 1017.4 |
| 20260504180058 | 57 | 0 | 0.0 | 4.0 | 0.00 | 0.00 | 0.00 | 90 | 1017.5 |
| 20260504174600 | 57 | 0 | 1.0 | 3.0 | 0.00 | 0.00 | 0.00 | 90 | 1017.5 |
| 20260504173058 | 55 | 0 | 0.0 | 3.0 | 0.00 | 0.00 | 0.00 | 92 | 1017.5 |
| 20260504171610 | 55 | 0 | 0.0 | 2.0 | 0.00 | 0.00 | 0.00 | 93 | 1017.6 |
| 20260504160105 | 53 | 0 | 0.0 | 0.0 | 0.00 | 0.00 | 0.00 | 94 | 1017.4 |
| 20260504140109 | 52 | 0 | 0.0 | 0.0 | 0.00 | 0.00 | 0.00 | 96 | 1016.3 |
| 20260504120120 | 52 | 0 | 0.0 | 0.0 | 0.00 | 0.00 | 0.00 | 95 | 1014.9 |
| 20260504110107 | 52 | 0 | 0.0 | 0.0 | 0.00 | 0.00 | 0.00 | 94 | 1014.4 |
| 20260504100117 | 55 | 0 | 0.0 | 1.0 | 0.00 | 0.00 | 0.00 | 90 | 1013.7 |
| 20260504090107 | 59 | 0 | 0.0 | 0.0 | 0.00 | 0.00 | 0.00 | 81 | 1012.8 |
| 20260504081558 | 64 | 0 | 0.0 | 0.0 | 0.00 | 0.00 | 0.00 | 70 | 1012.9 |
| 20260504080105 | 65 | 0 | 0.0 | 0.0 | 0.00 | 0.00 | 0.00 | 68 | 1012.8 |
| 20260504070134 | 71 | 240 | 1.0 | 3.0 | 0.00 | 0.00 | 0.00 | 55 | 1012.7 |
| 20260504060106 | 71 | 234 | 1.0 | 3.0 | 0.00 | 0.00 | 0.00 | 54 | 1012.4 |